Simultaneous Nadir Overpasses (SNOs) Predictions

Prediction of SNOs between LANDSAT-8 and METOP-B Satellite Orbit:

Table of predicted SNOs for the next 14.0 days since TLE Epoch: 10/9/2021
Index Date (LANDSAT-8) Time (LANDSAT-8) Lat,Lon (LANDSAT-8) SZA (LANDSAT-8 ) Date (METOP-B) Time (METOP-B) Lat,Lon (METOP-B) SZA (METOP-B ) Distance(km) Time Diff (sec)
1 10/10/2021 23:11:14 81.11,-127.94 90.47 10/10/2021 23:10:28 81.11,-128.09 90.43 2.67 46
2 10/11/2021 00:00:40 -81.13, 39.97 89.48 10/11/2021 00:01:07 -81.14, 40.09 89.45 2.26 27
3 10/13/2021 18:45:29 81.11, -61.57 91.52 10/13/2021 18:44:50 81.11, -61.65 91.50 1.37 39
4 10/13/2021 19:34:54 -81.15, 106.73 88.37 10/13/2021 19:35:29 -81.14, 106.57 88.38 2.92 35
5 10/16/2021 14:19:44 81.13, 5.11 92.61 10/16/2021 14:19:12 81.13, 5.14 92.60 0.61 32
6 10/16/2021 15:09:10 -81.15, 173.07 87.33 10/16/2021 15:09:52 -81.14, 173.01 87.32 0.90 42
7 10/19/2021 09:53:59 81.14, 71.74 93.67 10/19/2021 09:53:34 81.14, 71.91 93.68 2.99 25
8 10/19/2021 10:43:25 -81.16,-120.28 86.27 10/19/2021 10:44:14 -81.16,-120.19 86.24 1.59 49
9 10/22/2021 05:28:14 81.12, 137.95 94.65 10/22/2021 05:27:57 81.12, 137.90 94.64 0.88 17



Historial Predications of SNOs between LANDSAT-8 and METOP-B
